Theta_e
339 340 340 339 337 335 334 332 330 326 323 320 318 317 317 316 315 315 313 313 312 311
338 340 340 339 338 335 333 329 326 323 320 318 317 317 316 314 313 312 312 310 310 309
339 340 338 337 334 331 329 328 324 321 319 317 316 315 314 312 313 310 308 307 306 305
338 338 336 334 330 329 327 325 322 319 318 316 316 314 313 312 309 306 305 305 303 300
336 334 333 330 329 328 325 324 320 318 317 316 313 314 313 309 306 303 301 299 299 297
333 332 329 328 327 325 323 321 318 317 316 314 314 312 308 305 302 300 299 298 298 298
332 329 327 326 324 322 322 318 317 317 315 315 311 308 304 301 298 297 298 299 299 299
328 327 324 322 321 320 319 317 316 316 314 311 308 304 300 298 296 296 296 298 299 301
325 323 321 319 318 316 316 315 316 314 311 308 304 301 300 296 294 294 294 293 294 295
324 320 318 317 316 313 313 314 313 311 308 303 301 298 297 296 293 292 292 292 292 292
319 315 314 314 312 312 313 311 309 306 304 302 298 295 294 294 292 291 291 291 291 293
316 314 313 310 310 311 309 307 306 304 302 297 294 294 293 292 292 291 292 292 292 293
314 312 309 308 307 308 308 305 303 300 297 295 293 293 292 293 292 291 291 293 294 294
310 308 308 306 306 306 305 302 298 295 293 293 293 294 293 293 292 292 291 291 291 292
Wind_Speed
11 9 9 12 11 9 9 10 10 11 12 11 11 10 9 8 8 8 8 10 8 6
11 12 12 12 10 9 10 9 11 13 14 12 11 12 10 9 9 10 8 9 9 7
13 13 13 13 13 13 13 13 12 14 13 12 11 13 13 10 9 11 7 7 10 7
13 14 14 13 14 15 16 15 14 15 15 14 12 12 13 11 11 12 10 9 8 9
15 16 15 14 16 17 17 14 16 16 16 14 12 13 14 12 11 12 11 8 9 8
18 17 16 15 15 16 14 16 19 15 15 16 13 15 13 13 13 12 10 8 9 8
19 19 16 16 15 16 17 14 17 12 17 16 15 15 14 14 13 11 11 10 9 7
19 19 19 18 17 16 16 14 16 11 14 15 14 12 15 14 12 13 12 8 8 7
22 22 21 21 20 20 17 18 17 13 14 12 10 21 21 17 13 13 10 10 7 8
23 22 21 20 20 20 21 19 19 13 15 14 14 22 22 21 12 11 10 7 6 7
21 23 22 20 18 17 17 24 17 16 15 15 12 22 23 21 13 11 8 7 6 5
21 22 21 21 20 18 19 18 16 15 16 17 13 23 21 18 12 9 7 7 4 7
21 22 21 21 22 15 16 18 14 16 15 19 14 19 18 15 9 9 7 6 7 13
21 23 23 22 19 19 17 17 16 17 13 13 13 13 16 13 9 8 7 7 7 7
Wind_Direction
167 164 155 157 158 160 145 136 143 127 113 117 118 104 101 96 89 91 82 85 77 80
174 160 161 148 144 144 137 138 134 124 119 117 114 107 109 100 96 86 85 80 78 70
173 160 151 145 144 141 130 130 136 120 117 114 107 111 106 102 97 94 79 82 78 74
163 148 146 144 138 138 135 140 138 125 117 118 118 111 104 99 103 93 91 74 85 73
152 144 144 143 144 145 141 139 140 118 122 118 122 114 107 107 101 100 86 85 79 72
149 140 147 138 140 134 126 138 116 124 132 122 121 108 105 103 97 87 87 81 75 73
146 144 140 134 134 128 130 127 116 150 128 120 121 111 109 103 95 93 80 76 77 82
138 137 131 128 126 122 123 111 114 132 105 112 114 112 112 106 103 95 86 71 70 67
140 133 133 128 130 125 125 106 114 120 110 116 109 114 113 110 102 95 101 89 74 62
141 131 132 132 136 132 136 119 117 116 117 111 116 108 104 104 100 105 93 97 83 71
137 130 130 132 128 131 125 116 125 118 120 115 110 107 101 101 99 91 89 84 81 92
138 132 132 129 128 123 114 109 118 122 118 116 112 107 109 107 97 95 82 87 109 85
133 127 128 125 118 112 111 114 120 113 113 114 119 114 106 106 109 103 97 94 75 74
126 131 124 117 113 115 116 112 109 108 106 109 114 105 105 107 107 112 116 102 82 68